Regional Weather Roundup
Issued by NWS

Home | Current Version | Previous Version | Text Only | Print | Product List | Glossary On
Versions: 1 2 3 4 5 6 7 8 9 10 11 12 13 14 15 16 17 18 19 20 21 22 23 24 25 26 27 28 29 30 31 32 33 34 35 36 37 38 39 40 41 42 43 44 45 46 47 48 49 50
000
ASUS44 KEWX 231402
RWRTX
SOUTH TEXAS REGIONAL WEATHER ROUNDUP
NATIONAL WEATHER SERVICE AUSTIN/SAN ANTONIO TX
900 AM CDT THU OCT 23 2014

NOTE: "FAIR" INDICATED FEW OR NO CLOUDS BELOW 12,000 FEET WITH NO
SIGNIFICANT WEATHER AND/OR OBSTRUCTIONS TO VISIBILITY.

* - THESE STATIONS ARE NOT NWS OR FAA STATIONS...AND ARE NOT SUBJECT
    TO NWS AND FAA QUALITY CONTROL.

TXZ171-172-183>190-231500-
TEXAS HILL COUNTRY AND EDWARDS PLATEAU

CITY           SKY/WX    TMP DP  RH WIND       PRES   REMARKS
JUNCTION       MOSUNNY   59  56  89 CALM      30.15R FOG
*LLANO         NOT AVBL
BURNET         CLOUDY    66  59  78 CALM      30.16R
*HORSESHOE BAY PTSUNNY   66  61  84 S5        30.14R
*KERRVILLE     MOSUNNY   62  61  94 CALM      30.16R FOG
*FREDERICKSBRG MOSUNNY   64  60  90 CALM      30.15R
*ROCKSPRINGS   SUNNY     61  61 100 CALM      30.17R FOG
*BOERNE STAGE  PTSUNNY   63  61  94 CALM      30.16R
*CASTROVILLE   PTSUNNY   66  65  94 CALM      30.15R
HONDO          PTSUNNY   64  64 100 E5        30.15R
*UVALDE        MOSUNNY   68  67  96 E5        30.13S
DEL RIO        CLOUDY    65  63  93 E7        30.11R
LAUGHLIN AFB   CLOUDY    63  63  99 CALM      30.12R
CARRIZO SPRGS  MOSUNNY   68  64  88 E5        30.10R
$$

TXZ173-191>194-202-209-217>225-228-231500-
CENTRAL AND SOUTH CENTRAL TEXAS

CITY           SKY/WX    TMP DP  RH WIND       PRES   REMARKS
GEORGETOWN     PTSUNNY   66  61  82 CALM      30.14R
AUSTIN/BERGSTM PTSUNNY   66  63  90 E5        30.13R
AUSTIN/MABRY   PTSUNNY   69  61  75 CALM      30.14R
*AUSTIN/EXEC   CLOUDY    64  59  82 CALM      30.15R
*LAGO VISTA    PTSUNNY   68  61  79 CALM      30.15R
SAN MARCOS     SUNNY     66  61  82 MISG      30.14R FOG
NEW BRAUNFELS  PTSUNNY   68  67  96 CALM      30.12R FOG
RANDOLPH AFB   PTSUNNY   67  64  90 NE1       30.13R
PT SAN ANTONIO PTSUNNY   69  64  83 NW2       30.12R
SAN ANTONIO    PTSUNNY   70  66  87 N3        30.13R
STINSON FIELD  PTSUNNY   70  63  78 NE3       30.11R
*PLEASANTON    PTSUNNY   67  65  91 CALM      30.13R
*LA GRANGE     CLOUDY    65  63  91 CALM      30.12R
*GIDDINGS      CLOUDY    64  59  85 CALM      30.18R
*GONZALES      CLOUDY    67  63  87 NE5       30.12S
$$

TXZ163>164-176>182-195>201-210>213-226-227-235-231500-
SOUTHEAST TEXAS

CITY           SKY/WX    TMP DP  RH WIND       PRES   REMARKS
COLLEGE STN    CLOUDY    65  54  67 E5        30.14R
*BRYAN         CLOUDY    62  58  88 CALM      30.17R
*CALDWELL      CLOUDY    63  59  88 CALM      30.17R
*CROCKETT      CLOUDY    63  57  82 NE3       30.18R
*BRENHAM       CLOUDY    65  57  75 NE3       30.15S
HUNTSVILLE     CLOUDY    61  55  81 CALM      30.14R
CONROE         CLOUDY    60  52  74 NW5       30.15R
HOUSTON BUSH   CLOUDY    61  54  77 E7        30.11R
HOUSTON HOBBY  CLOUDY    65  56  72 N6        30.11R
*HOUSTON SW AP CLOUDY    57  53  86 NE6       30.11S
PEARLAND       CLOUDY    65  58  78 N3        30.13R
HOUSTON HOOKS  CLOUDY    62  53  72 N5        30.13R
ELLINGTON FLD  NOT AVBL
SUGAR LAND     CLOUDY    65  57  75 N7        30.12R
*HOUSTON EXEC  CLOUDY    63 N/A N/A NE7       30.14R
*CLEVELAND MUN NOT AVBL
*WHARTON       CLOUDY    63  58  86 CALM      30.12R
*COLUMBUS      FAIR      64  59  85 CALM      30.12S
$$

TXZ214>216-236>238-231500-
THE UPPER TEXAS COAST

CITY           SKY/WX    TMP DP  RH WIND       PRES   REMARKS
*ORANGE        MOSUNNY   60  55  82 NE6       30.13R
PORT ARTHUR    MOSUNNY   64  52  64 E10       30.10R
GALVESTON      MOSUNNY   71  65  81 NE8       30.10R
ANGLETON       PTSUNNY   63  60  90 NE6       30.11R
*BAY CITY        N/A     64  62  92 N3        30.11R
PALACIOS       CLOUDY    66  61  84 NE9       30.10R
$$

TXZ229>234-239>247-231500-
TEXAS COASTAL BEND AND RIO GRANDE PLAINS

CITY           SKY/WX    TMP DP  RH WIND       PRES   REMARKS
VICTORIA       CLOUDY    66  61  84 NE6       30.11R
*BEEVILLE      CLOUDY    70  62  77 NE5       30.10R
ROCKPORT       MOSUNNY   68  62  81 N12       30.10R
*PORT ARANSAS  CLOUDY    72  66  83 N13       30.08R
*PORT LAVACA   CLOUDY    65  61  88 NE7       30.11R
*INGLESIDE     MOSUNNY   66  64  93 N9        30.08R
CORPUS CHRISTI PTSUNNY   68  64  87 N10       30.09R
CORPUS NAS     PTSUNNY   71  69  93 N14       30.08R
*ROBSTOWN      HVY RAIN  67  64  91 N8        30.09R
ALICE          PTSUNNY   68  64  87 NE8       30.09R
KINGSVILLE NAS PTSUNNY   67  65  93 N7        30.09R
COTULLA        PTSUNNY   70  64  81 E8        30.11R
*FAITH RANCH   PTSUNNY   68  63  83 E5        30.11R
LAREDO         CLOUDY    71  65  81 NE7       30.12R
$$

TXZ248>255-231500-
DEEP SOUTH TEXAS

CITY           SKY/WX    TMP DP  RH WIND       PRES   REMARKS
BROWNSVILLE    MOSUNNY   73  69  87 NW5       30.05R
PORT ISABEL    SUNNY     74  69  85 NW7       30.05R
*SOUTH PADRE     N/A    N/A N/A N/A NE6       30.04R
HARLINGEN      MOSUNNY   70  67  90 NW5       30.06R
*HEBBRONVILLE  CLOUDY    68  64  86 NE5       30.10R
MCALLEN        CLOUDY    72  66  81 N6        30.07R
*WESLACO       MOSUNNY   71  65  83 CALM      30.06R
FALFURRIAS     PTSUNNY   66  64  91 N6        30.08R
EDINBURG       PTSUNNY   70  66  87 NW3       30.08R
*ZAPATA        MOSUNNY   73  65  75 E6        30.09R
$$

TXZ213>215-236>238-242>244-246-247-251-254-255-231500-
CMAN STATIONS

STATION/POSITION TIME  TEMP    WIND        PRES    WAVE
                       AIR SEA DIR/SP/G            HT/PER
                 (UTC) (F)     (DEG/KT/KT) (MB)    (FT/S)
SABINE PASS      1300   60 72   30/  5/  7 1019.5
SEA RIM ST PARK  1300   60      40/  7/  9 1019.7
NORTH JETTY/GLS  1300   69 74  100/ 12/ 14   N/A
EAGLE POINT      1300   66 73   80/ 11/ 14 1019.3
MORGANS POINT    1300   63      50/  6/  8 1019.1
MISSION/ARANSAS  1300           20/ 11     1019.0
PORT O`CONNOR    1300           20/ 14/ 16   N/A
PORT ARANSAS     1300   72 77  360/  9/ 11 1018.4
MALAQUITE BEACH  1300   74 77  350/  8/  9 1017.7
BAFFIN BAY       1300   70 81  340/  9/ 11 1018.2
PORT ISABEL      1300   78 79  350/  5/  8 1017.0
$$

GMZ080-GMZ150>470-231500-
OFFSHORE BUOY REPORTS

STATION/POSITION TIME  TEMP    WIND        PRES    WAVE
                       AIR SEA DIR/SP/G            HT/PER
                 (UTC) (F)     (DEG/KT/KT) (MB)    (FT/S)
20 E GALVESTON   1400   72 78   70/ 14/ 16 1018.2    3/ 5
90 E PT ARANSAS  1400   77 81   50/ 10/ 12 1018.1    4/ 7
35 NE PT MANSFLD 1300   78 81   30/  8/ 10 1016.7    5/ 7
200 E PT ISABEL  1300   79 81   60/ 14/ 17 1015.1    7/ 8
$$



USA.gov is the U.S. government's official web portal to all federal, state and local government web resources and services.